Location: Elstree
(51.6403°N, 0.2969°W)
Time: 04:27:50
(UTC+00:00)

SJ 16-02 - Pass Details

Date: 17 June 2021
Orbit: 606 x 616 km, 75.0° (Epoch: 26 July)

Event Time Altitude Azimuth Distance (km) Brightness Sun altitude
Rises 22:23:32 0° 345° (NNW) 2,880 6.8 -11.9°
Reaches altitude 10° 22:26:41 10° 9° (N) 1,970 4.9 -12.1°
Maximum altitude 22:29:14 15° 45° (NE) 1,657 3.8 -12.2°
Drops below altitude 10° 22:31:47 10° 81° (E) 1,962 3.8 -12.4°
Enters shadow 22:34:23 - 102° (ESE) 2,690 4.3 -12.5°
